Other Public Products
Issued by NWS Charleston, SC

Home | Current Version | Previous Version | Text Only | Print | Product List | Glossary On
Versions: 1 2 3 4 5 6 7 8 9 10 11 12 13 14 15 16 17 18 19 20 21 22 23 24 25 26 27 28 29 30 31 32 33 34 35 36 37 38 39 40 41 42 43 44 45 46 47 48 49 50
710
FPUS82 KCHS 290612
OPUCHS

TEST...KCHS/KSAV Gateway Observations...TEST
National Weather Service Charleston SC
200 AM EDT WED MAR 29 2017

NOTE: "fair" indicates few or no clouds below 12,000 feet with no
significant weather and/or obstructions to visibility.

SCZ050-WAZ558-NCZ071-TXZ119-213-PAZ071-DCZ001-FLZ074-172-MI076-
NYZ176-178-MAZ016-IL014-TNZ027-NJZ106-GAZ044-MD014-290700-

...Gateway Observations for Charleston International...

CITY           SKY/WX    TMP DP  RH WIND       PRES   REMARKS
Chas Airport   PTCLDY    65  61  87 SW7       29.95F
6HR MIN TEMP:  63; 6HR MAX TEMP:  67;

Seattle        LGT RAIN  49  43  80 S9        30.16F
6HR MIN TEMP:  49; 6HR MAX TEMP:  53; 6HR PCP: TRACE;

Charlotte      PTCLDY    62  50  64 N3        30.00F
6HR MIN TEMP:  60; 6HR MAX TEMP:  71;

Dallas DFW     MOCLDY    74  64  71 SE20G25   29.66F
6HR MIN TEMP:  74; 6HR MAX TEMP:  82; 6HR PCP: TRACE;

Dallas Love    MOCLDY    74  62  66 SE20      29.68F
6HR MIN TEMP:  74; 6HR MAX TEMP:  82;

Philladelphia  CLOUDY    49  46  90 NW5       29.96S
6HR MIN TEMP:  48; 6HR MAX TEMP:  50;

Wash National  CLOUDY    61  54  77 N8        29.98S
6HR MIN TEMP:  62; 6HR MAX TEMP:  69; 6HR PCP: TRACE;

Baltimore      CLOUDY    59  54  83 N6        29.96S
6HR MIN TEMP:  59; 6HR MAX TEMP:  66;

Miami          PTCLDY    74  66  76 SE3       30.02F
6HR MIN TEMP:  74; 6HR MAX TEMP:  76;

Detroit        CLEAR     37  31  78 N6        30.24R WCI  32
6HR MIN TEMP:  37; 6HR MAX TEMP:  48;

Newark         CLOUDY    45  44  97 N5        29.93F
6HR MIN TEMP:  41; 6HR MAX TEMP:  45; 6HR PCP:  0.07;

Laguardia      CLOUDY    47  42  83 N6        29.92F
6HR MIN TEMP:  42; 6HR MAX TEMP:  47; 6HR PCP:  0.11;

J F K          CLOUDY    45  43  93 N6        29.93F
6HR MIN TEMP:  42; 6HR MAX TEMP:  45; 6HR PCP:  0.10;

Boston Logan   LGT RAIN  38  38 100 N7        29.95F WCI  33
6HR MIN TEMP:  38; 6HR MAX TEMP:  39; 6HR PCP:  0.56;

Ft. Lauderdale PTCLDY    74  65  73 SE5       30.01F
6HR MIN TEMP:  74; 6HR MAX TEMP:  77;

Chicago O`Hare FOG       36  34  92 NE9       30.23S VSB 1   WCI  29
6HR MIN TEMP:  36; 6HR MAX TEMP:  43;

Chicago Midway CLOUDY    37  36  96 N8        30.23S FOG     WCI  31
6HR MIN TEMP:  37; 6HR MAX TEMP:  44;

Houston Bush   MOCLDY    75  67  76 S21G28    29.73F
6HR MIN TEMP:  75; 6HR MAX TEMP:  76;

Houston Hobby  MOCLDY    74  68  81 SE18G29   29.72F
6HR MIN TEMP:  74; 6HR MAX TEMP:  76;

Nashville      CLEAR     55  52  89 N5        30.05F
6HR MIN TEMP:  55; 6HR MAX TEMP:  66;

Atlanta        CLEAR     64  56  75 CALM      30.02R
6HR MIN TEMP:  64; 6HR MAX TEMP:  75;


$$

GAZ044-118-TXZ119-213-NCZ071-DCZ001-MDZ014-506-PAZ021-071-NJZ106-
NYZ176-178-MAZ106-OHZ011-021-055-MIZ076-KYZ091-ILZ014-INZ047-
MNZ060-ONZ431-290700-

...Gateway Observations for Savannah International...

CITY           SKY/WX    TMP DP  RH WIND       PRES   REMARKS
Savannah Arpt  CLEAR     65  58  78 CALM      29.98S
6HR MIN TEMP:  65; 6HR MAX TEMP:  78;

Atlanta        CLEAR     64  56  75 CALM      30.02R
6HR MIN TEMP:  64; 6HR MAX TEMP:  75;

Charlotte      PTCLDY    62  50  64 N3        30.00F
6HR MIN TEMP:  60; 6HR MAX TEMP:  71;

Dallas DFW     MOCLDY    74  64  71 SE20G25   29.66F
6HR MIN TEMP:  74; 6HR MAX TEMP:  82; 6HR PCP: TRACE;

Houston Bush   MOCLDY    75  67  76 S21G28    29.73F
6HR MIN TEMP:  75; 6HR MAX TEMP:  76;

Wash National  CLOUDY    61  54  77 N8        29.98S
6HR MIN TEMP:  62; 6HR MAX TEMP:  69; 6HR PCP: TRACE;

Wash Dulles    CLOUDY    59  55  87 NW6       29.98S
6HR MIN TEMP:  58; 6HR MAX TEMP:  63; 6HR PCP:  0.05;

Baltimore      CLOUDY    59  54  83 N6        29.96S
6HR MIN TEMP:  59; 6HR MAX TEMP:  66;

Philadelphia   CLOUDY    49  46  90 NW5       29.96S
6HR MIN TEMP:  48; 6HR MAX TEMP:  50;

Newark         CLOUDY    45  44  97 N5        29.93F
6HR MIN TEMP:  41; 6HR MAX TEMP:  45; 6HR PCP:  0.07;

Laguardia      CLOUDY    47  42  83 N6        29.92F
6HR MIN TEMP:  42; 6HR MAX TEMP:  47; 6HR PCP:  0.11;

J F K          CLOUDY    45  43  93 N6        29.93F
6HR MIN TEMP:  42; 6HR MAX TEMP:  45; 6HR PCP:  0.10;

Boston         LGT RAIN  38  38 100 N7        29.95F WCI  33
6HR MIN TEMP:  38; 6HR MAX TEMP:  39; 6HR PCP:  0.56;

Pittsburg      CLOUDY    45  42  89 N9        30.13R
6HR MIN TEMP:  45; 6HR MAX TEMP:  52;

Akron          CLOUDY    41  38  89 N8        30.16S FOG
6HR MIN TEMP:  41; 6HR MAX TEMP:  45;

Cleveland      CLOUDY    38  33  82 NW5       30.22S WCI  34
6HR MIN TEMP:  38; 6HR MAX TEMP:  43; 6HR PCP: TRACE;

Cincinnati     CLOUDY    52  47  83 NE10      30.12F
6HR MIN TEMP:  52; 6HR MAX TEMP:  56;

Columbus       CLOUDY    44  41  87 N6        30.17S
Detroit        CLEAR     37  31  78 N6        30.24R WCI  32
6HR MIN TEMP:  37; 6HR MAX TEMP:  48;

Chicago O`Hare FOG       36  34  92 NE9       30.23S VSB 1   WCI  29
6HR MIN TEMP:  36; 6HR MAX TEMP:  43;

Minneapolis    CLOUDY    46  34  62 CALM      30.18F
6HR MIN TEMP:  46; 6HR MAX TEMP:  61;

Indianapolis   CLOUDY    50  45  83 NE12      30.15R
6HR MIN TEMP:  50; 6HR MAX TEMP:  53;

Toronto Canada CLEAR     36  30  80 N13       30.19R WCI  27

$$




USA.gov is the U.S. government's official web portal to all federal, state and local government web resources and services.